DLH759 LBWN-EDDF

Flight info

Callsign DLH759
Flight time N/A
Altitude 36000
Route BALIK T777 KOMAN DCT MOPUG DCT ARSIN DCT SUBEN DCT AKINI T161 DEBHI DEBHI1B
Aircraft A343/H-SDE2E3FGHIJ4J5M1RWXY/LB1D1

Departure

Time N/A
Airport Varna Airport (LBWN)

Arrival

Time 2026-04-18 08:03
Airport Frankfurt Main Airport (EDDF)
Time Latitude Longitude Altitude Speed Heading
2026-04-18 07:43 49.45148 10.26685 22265 ft 423 kts 303°
2026-04-18 07:43 49.46822 10.22993 21164 ft 417 kts 303°
2026-04-18 07:44 49.48458 10.19388 20880 ft 405 kts 303°
2026-04-18 07:44 49.50057 10.15862 20540 ft 398 kts 303°
2026-04-18 07:44 49.51632 10.12381 20159 ft 394 kts 303°
2026-04-18 07:44 49.53194 10.08923 19763 ft 393 kts 303°
2026-04-18 07:45 49.54678 10.05644 19376 ft 392 kts 303°
2026-04-18 07:45 49.56313 10.02018 18956 ft 391 kts 303°
2026-04-18 07:45 49.57839 9.98625 18563 ft 389 kts 303°
2026-04-18 07:45 49.59380 9.95205 18139 ft 387 kts 303°
2026-04-18 07:46 49.60909 9.91800 17734 ft 385 kts 303°
2026-04-18 07:46 49.62427 9.88410 17334 ft 382 kts 303°
2026-04-18 07:46 49.63932 9.85048 16953 ft 379 kts 303°
2026-04-18 07:46 49.65427 9.81701 16555 ft 377 kts 303°
2026-04-18 07:47 49.66914 9.78373 16177 ft 376 kts 303°
2026-04-18 07:47 49.68392 9.75056 15806 ft 374 kts 303°
2026-04-18 07:47 49.69861 9.71758 15432 ft 372 kts 303°
2026-04-18 07:47 49.71327 9.68465 15036 ft 370 kts 303°
2026-04-18 07:48 49.72781 9.65194 14659 ft 369 kts 303°
2026-04-18 07:48 49.74214 9.61969 14290 ft 367 kts 303°
2026-04-18 07:48 49.75659 9.58721 13912 ft 365 kts 303°
2026-04-18 07:48 49.77091 9.55486 13515 ft 364 kts 303°
2026-04-18 07:49 49.78513 9.52267 13127 ft 362 kts 303°
2026-04-18 07:49 49.79932 9.49052 12754 ft 360 kts 303°
2026-04-18 07:49 49.81336 9.45871 12473 ft 353 kts 303°
2026-04-18 07:49 49.82701 9.42776 12300 ft 343 kts 302°
2026-04-18 07:50 49.84025 9.39765 12155 ft 334 kts 302°
2026-04-18 07:50 49.85310 9.36827 12015 ft 324 kts 301°
2026-04-18 07:50 49.86347 9.33781 11892 ft 314 kts 289°
2026-04-18 07:50 49.87136 9.30690 11729 ft 304 kts 296°
2026-04-18 07:51 49.88431 9.28193 11341 ft 294 kts 319°
2026-04-18 07:51 49.90207 9.26694 10675 ft 292 kts 340°
2026-04-18 07:51 49.92150 9.25780 9966 ft 291 kts 343°
2026-04-18 07:51 49.94076 9.24970 9214 ft 289 kts 343°
2026-04-18 07:52 49.96004 9.24165 8523 ft 286 kts 343°
2026-04-18 07:52 49.97913 9.23396 7778 ft 282 kts 346°
2026-04-18 07:52 49.99865 9.23331 7156 ft 282 kts
2026-04-18 07:52 50.01761 9.23970 6994 ft 274 kts 13°
2026-04-18 07:53 50.03561 9.24685 6835 ft 260 kts 13°
2026-04-18 07:53 50.05286 9.25372 6605 ft 254 kts 11°
2026-04-18 07:53 50.07027 9.25419 6363 ft 249 kts 346°
2026-04-18 07:53 50.08682 9.24688 6118 ft 247 kts 340°
2026-04-18 07:54 50.10301 9.23811 5915 ft 245 kts 338°
2026-04-18 07:54 50.11903 9.22926 5647 ft 244 kts 338°
2026-04-18 07:54 50.13435 9.21827 5376 ft 242 kts 321°
2026-04-18 07:54 50.14469 9.19821 5122 ft 237 kts 291°
2026-04-18 07:55 50.15024 9.17415 4888 ft 236 kts 284°
2026-04-18 07:55 50.15477 9.14988 4602 ft 236 kts 283°
2026-04-18 07:55 50.15901 9.12529 4358 ft 234 kts 279°
2026-04-18 07:55 50.15937 9.10020 4094 ft 231 kts 261°
2026-04-18 07:56 50.15643 9.07845 4001 ft 227 kts 252°
2026-04-18 07:56 50.15128 9.05475 3993 ft 229 kts 248°
2026-04-18 07:56 50.14563 9.03149 3992 ft 229 kts 248°
2026-04-18 07:56 50.13994 9.00826 3986 ft 229 kts 248°
2026-04-18 07:57 50.13429 8.98496 3993 ft 229 kts 248°
2026-04-18 07:57 50.12871 8.96162 3992 ft 230 kts 249°
2026-04-18 07:57 50.12325 8.93814 3991 ft 230 kts 249°
2026-04-18 07:57 50.11787 8.91476 3992 ft 230 kts 249°
2026-04-18 07:58 50.10706 8.86830 3991 ft 226 kts 248°
2026-04-18 07:58 50.10178 8.84591 3897 ft 217 kts 248°
2026-04-18 07:58 50.09668 8.82440 3684 ft 205 kts 248°
2026-04-18 07:59 50.09181 8.80397 3394 ft 198 kts 249°
2026-04-18 07:59 50.08707 8.78410 3055 ft 193 kts 249°
2026-04-18 07:59 50.08249 8.76482 2780 ft 187 kts 249°
2026-04-18 07:59 50.07803 8.74606 2527 ft 183 kts 249°
2026-04-18 08:00 50.07367 8.72777 2279 ft 176 kts 250°
2026-04-18 08:00 50.06958 8.71060 2063 ft 162 kts 250°
2026-04-18 08:00 50.06585 8.69488 1844 ft 149 kts 250°
2026-04-18 08:00 50.06228 8.67991 1644 ft 146 kts 250°
2026-04-18 08:01 50.05876 8.66510 1413 ft 146 kts 251°
2026-04-18 08:01 50.05522 8.65019 1219 ft 148 kts 250°
2026-04-18 08:01 50.05153 8.63487 1075 ft 154 kts 250°
2026-04-18 08:01 50.04774 8.61914 889 ft 156 kts 249°
2026-04-18 08:02 50.04393 8.60310 647 ft 159 kts 250°
2026-04-18 08:02 50.04012 8.58700 427 ft 157 kts 250°
2026-04-18 08:02 50.03651 8.57189 360 ft 135 kts 250°
2026-04-18 08:02 50.03392 8.56091 361 ft 75 kts 250°
2026-04-18 08:03 50.03308 8.55557 353 ft 28 kts 272°
2026-04-18 08:03 50.03326 8.55346 352 ft 19 kts 279°
2026-04-18 08:03 50.03337 8.55233 349 ft 6 kts 278°
2026-04-18 08:03 50.03362 8.55168 355 ft 10 kts 320°
2026-04-18 08:04 50.03416 8.55199 355 ft 8 kts 51°
2026-04-18 08:04 50.03442 8.55289 358 ft 12 kts 66°
2026-04-18 08:04 50.03483 8.55433 355 ft 17 kts 67°
2026-04-18 08:04 50.03531 8.55634 357 ft 22 kts 70°
2026-04-18 08:05 50.03587 8.55877 359 ft 26 kts 70°
2026-04-18 08:05 50.03654 8.56153 363 ft 29 kts 69°
2026-04-18 08:05 50.03730 8.56458 362 ft 31 kts 70°
2026-04-18 08:05 50.03802 8.56775 366 ft 32 kts 72°
2026-04-18 08:06 50.03869 8.57097 368 ft 31 kts 68°
2026-04-18 08:06 50.03949 8.57390 369 ft 29 kts 67°
2026-04-18 08:06 50.04022 8.57675 371 ft 28 kts 69°
2026-04-18 08:06 50.04084 8.57943 375 ft 25 kts 71°
2026-04-18 08:07 50.04152 8.58135 375 ft 18 kts 38°
2026-04-18 08:07 50.04263 8.58201 372 ft 16 kts
2026-04-18 08:07 50.04363 8.58161 374 ft 13 kts 342°
2026-04-18 08:07 50.04448 8.58116 373 ft 13 kts 340°
2026-04-18 08:08 50.04541 8.58062 373 ft 16 kts 339°
2026-04-18 08:08 50.04657 8.57992 368 ft 18 kts 340°
2026-04-18 08:08 50.04698 8.57861 368 ft 14 kts 249°
2026-04-18 08:08 50.04667 8.57728 370 ft 13 kts 250°
2026-04-18 08:09 50.04639 8.57605 367 ft 12 kts 251°
2026-04-18 08:09 50.04631 8.57491 366 ft 11 kts 289°
2026-04-18 08:09 50.04678 8.57405 369 ft 10 kts 315°
2026-04-18 08:09 50.04706 8.57342 365 ft 5 kts 284°
2026-04-18 08:10 50.04709 8.57300 360 ft 2 kts 277°
2026-04-18 08:10 50.04710 8.57287 360 ft 0 kts 277°